Location: 5810 Zion Rd, Cleves, OH 45002, USA
(39.1922°N, 84.7113°W)
Time: 06:18:02
(UTC-05:00)

Vanguard 3 - Pass Details

Date: 23 December 2019
Orbit: 507 x 3263 km, 33.4° (Epoch: 25 January)

Event Time Altitude Azimuth Distance (km) Brightness Sun altitude
Rises 11:08:08 0° 265° (W) 4,010 10.5 24.0°
Reaches altitude 10° 11:11:22 10° 248° (WSW) 3,427 10.4 24.2°
Maximum altitude 11:17:37 21° 205° (SSW) 3,353 11.2 24.6°
Drops below altitude 10° 11:26:22 10° 164° (SSE) 4,997 13.1 25.2°
Sets 11:32:40 0° 151° (SSE) 6,505 13.0 25.5°
